Location: Newark
(30.0333°N, 31.2167°E)
Time: 01:16:12
(UTC+00:00)

LightSail 2 - Visible Passes

Search period start: 22 January 2021 00:00
Search period end: 01 February 2021 00:00
Orbit: 684 x 713 km, 24.0° (Epoch: 21 January)

Date Brightness Start Highest point End Pass type
(mag) Time Alt. Az. Time Alt. Az. Time Alt. Az.
22 Jan 7.6 02:48:09 10° S 02:50:15 13° SSE 02:52:22 10° SE visible
23 Jan 7.0 03:28:34 10° SW 03:32:30 23° SSE 03:36:28 10° ESE visible
24 Jan 7.2 02:29:39 18° SSE 02:30:07 18° SSE 02:33:28 10° ESE visible
24 Jan 6.4 04:10:19 10° SW 04:14:50 35° S 04:19:23 10° ESE visible
25 Jan 6.6 03:09:56 19° SSW 03:12:24 29° SSE 03:16:43 10° ESE visible
26 Jan 7.2 02:11:26 21° SE 02:11:26 21° SE 02:13:57 10° ESE visible
26 Jan 6.1 03:50:07 10° WSW 03:54:45 39° S 03:59:24 10° ESE visible
27 Jan 6.1 02:51:32 33° S 02:52:16 35° S 02:56:48 10° ESE visible
28 Jan 7.6 01:52:53 16° ESE 01:52:53 16° ESE 01:54:08 10° ESE visible
28 Jan 5.9 03:31:33 20° WSW 03:34:37 42° S 03:39:19 10° ESE visible
29 Jan 6.2 02:32:51 37° SSE 02:32:51 37° SSE 02:36:45 10° ESE visible
29 Jan 6.1 04:12:21 10° WSW 04:16:57 38° S 04:21:35 10° ESE visible
30 Jan 8.2 01:34:06 10° ESE 01:34:06 10° ESE 01:34:07 10° ESE visible
30 Jan 5.9 03:12:46 31° SW 03:14:26 41° S 03:19:07 10° ESE visible
31 Jan 6.8 02:13:59 27° SE 02:13:59 27° SE 02:16:34 10° ESE visible
31 Jan 6.2 03:52:39 12° WSW 03:56:43 33° S 04:01:10 10° SE visible
